CLUSTER II-FM5 (RUMBA)

Last updated on Oct. 28, 2020, 5:53 a.m. UTC

1 26463U 00045A   20302.85798667  .00000367  00000-0  00000-0 0  9999
2 26463 136.0055 343.8546 5516704 191.9977   1.0372  0.44216265 11114
UTC
Height (km)
Latitude
Longitude
Inclination
Orbital Period
UTC large
Height (km)
Speed (km/s)
/
Latitude / Longitude
Inclination (degrees)
Orbital Period (minutes)
Azimuth
Elevation
Range (km)
Doppler Factor
iOS Compass Heading
iOS Angle

Next 30 passes for location: Hong Kong

Rise time Rise Azimuth (degrees) Set time Set Azimuth (degrees) Duration Max altitude (degrees)

No matching passes for this satellites